RH
18 18 16 15 15 14 13 13 14 22 26 26 25 29 33 36 42 47 30 29 28 27 23 22 26 26 24 19 21 27 31 31 29 29 26 22 21 24 36 26 35 16 37 14 13 13 15
21 16 17 18 17 15 15 15 14 13 14 17 19 19 22 26 33 46 40 28 28 28 28 30 29 26 19 21 25 27 30 29 30 29 26 25 25 37 42 37 24 35 34 15 14 15 16
59 46 26 16 16 18 17 16 15 15 14 14 15 16 17 18 22 30 51 41 29 29 29 28 23 21 26 27 28 30 30 30 31 29 27 28 28 32 38 32 16 19 19 19 18 22 27
83 80 72 56 35 19 16 16 17 16 15 15 14 14 15 15 16 20 26 54 48 32 29 29 30 30 28 28 28 28 30 32 28 29 29 29 28 28 29 33 22 18 24 32 29 20 23
85 81 80 80 79 70 66 50 22 15 16 16 15 14 14 14 15 16 18 22 48 56 51 40 31 27 26 25 24 27 30 32 33 31 30 30 29 33 25 32 42 34 25 27 28 24 29
82 76 74 71 70 70 72 70 67 58 22 13 15 15 14 14 14 15 16 17 19 28 54 56 54 50 46 39 35 29 29 32 36 37 37 35 32 40 34 45 29 27 28 25 26 25 41
81 76 75 71 70 69 69 68 67 64 63 49 18 12 15 14 14 14 15 16 17 20 18 37 47 53 49 47 44 43 36 32 40 43 41 37 38 49 47 44 33 29 25 24 30 32 42
81 78 78 78 58 50 57 62 63 63 62 61 55 32 10 13 14 14 15 15 15 20 20 18 20 32 50 49 48 47 44 39 39 40 50 43 38 45 43 41 40 34 32 30 32 35 32
79 73 72 68 62 44 52 60 62 61 62 62 58 47 29 10 11 13 14 15 16 16 18 17 18 21 29 41 50 49 47 42 40 45 42 48 48 46 46 41 38 42 40 36 38 41 38
80 76 63 53 53 35 43 37 40 37 45 65 63 44 33 19 16 12 11 13 14 16 24 25 17 19 26 42 52 50 48 46 46 57 50 53 50 48 44 47 44 43 44 44 44 47 40
72 55 48 27 16 26 38 9 4 6 11 48 66 56 36 30 34 22 15 14 15 16 32 33 24 27 22 41 43 50 52 50 54 48 50 54 47 47 47 48 51 47 45 42 50 49 43
76 63 19 18 8 9 8 2 2 1 1 2 20 48 48 42 47 45 27 22 23 25 50 34 36 38 44 43 44 37 54 54 55 51 48 60 48 47 64 54 52 55 51 51 61 54 56
60 56 40 10 13 2 3 3 2 2 1 1 1 4 18 28 32 50 38 35 36 27 26 40 55 49 73 65 57 55 51 59 59 58 59 58 55 54 54 55 53 55 62 50 53 59 40
46 52 36 7 12 2 2 2 2 2 1 2 2 3 27 3 8 30 47 37 39 24 39 43 54 65 82 67 71 65 62 70 57 60 63 59 69 59 54 59 64 50 56 38 38 37 30
45 45 43 17 4 7 2 2 2 2 1 4 4 3 28 27 3 16 59 62 44 55 33 47 68 82 82 72 68 72 80 79 73 60 75 63 70 64 60 57 60 68 70 58 55 43 45
45 45 43 32 7 3 3 2 2 2 1 5 12 6 24 20 7 11 64 72 63 39 37 46 65 71 76 82 72 85 79 78 70 65 61 71 70 71 69 71 69 66 68 62 61 51 44
8 14 22 20 7 3 2 2 2 2 1 2 14 14 36 34 21 22 80 88 67 51 51 74 86 68 79 84 78 87 92 71 71 71 73 67 57 64 76 78 79 75 75 66 64 58 41
2 2 2 4 2 2 2 2 2 2 1 1 5 20 57 71 96 87 89 87 67 57 59 77 77 72 72 71 76 82 73 60 64 67 54 73 56 46 62 60 66 68 73 74 64 43 58
10 3 2 2 2 2 2 2 2 1 1 1 3 9 59 95 98 100 82 84 72 64 72 77 81 79 74 71 70 71 66 62 48 32 32 28 19 33 50 23 16 18 24 27 54 63 66
5 5 3 3 2 2 2 2 2 2 2 1 2 11 44 96 92 89 93 84 79 77 81 86 79 73 70 60 52 29 38 37 35 33 28 14 10 25 43 66 67 52 49 50 44 59 58
7 7 7 7 7 6 6 6 5 6 5 3 2 5 10 73 90 96 51 67 77 67 61 62 24 17 15 12 10 10 19 27 35 34 24 16 10 10 14 17 18 19 24 43 52 43 43
12 12 11 11 10 8 7 6 5 4 5 4 3 2 3 4 30 63 48 54 56 26 9 8 7 8 8 6 7 8 10 16 15 14 12 11 18 16 24 26 31 30 31 30 30 31 35
8 7 6 6 5 5 4 4 4 4 3 4 4 4 4 7 12 31 30 8 8 8 7 7 6 6 6 6 6 6 8 9 9 12 14 16 17 23 64 45 45 58 47 46 45 54 66
4 4 4 4 4 5 5 4 4 3 3 3 3 4 5 5 4 5 6 7 7 6 6 6 6 6 6 8 9 10 12 14 17 23 28 40 40 44 99 90 80 68 60 72 72 68 67
3 3 3 3 3 3 4 6 7 7 6 5 4 4 4 4 4 5 5 5 5 4 5 6 7 8 11 10 15 28 55 48 55 52 62 69 84 68 98 80 87 74 69 71 73 65 62
3 3 3 3 3 3 4 4 4 7 9 9 8 8 5 5 5 5 5 5 5 6 8 8 10 11 13 20 28 59 77 90 94 86 77 80 77 92 72 73 64 72 67 71 79 71 66
14 17 17 17 17 17 16 16 15 14 13 12 11 10 9 7 6 6 6 7 7 9 12 13 15 20 20 37 88 86 97 88 95 96 100 98 90 98 89 79 85 80 84 80 76 80 75
15 13 12 11 10 10 11 13 15 16 15 14 12 11 10 9 8 8 9 10 14 14 16 19 26 31 33 59 87 75 98 77 85 85 89 89 89 94 83 98 86 72 74 79 81 78 59
9 7 5 4 4 4 4 4 5 8 11 13 11 11 10 10 12 13 14 15 19 26 22 27 28 28 32 76 54 53 71 85 84 93 86 76 71 77 70 86 82 85 79 60 28 17 19
Wind_Speed
19 18 18 17 16 15 15 15 15 15 13 12 11 10 9 8 9 7 6 9 11 13 14 15 16 15 14 13 15 7 10 13 15 16 15 13 14 14 13 12 12 16 10 14 16 14 11
18 19 18 18 18 17 16 16 16 15 14 13 12 11 10 9 7 7 7 8 10 13 14 14 14 13 13 12 11 13 10 10 14 15 15 15 14 12 10 9 12 7 14 13 14 14 13
20 19 19 19 19 19 18 18 18 17 15 14 13 12 11 10 8 7 6 7 10 11 12 12 12 12 12 14 11 13 13 10 15 16 15 15 15 15 10 8 14 12 8 8 12 14 14
20 21 21 20 19 19 19 19 18 19 18 16 15 13 12 11 10 9 7 7 8 10 11 11 12 12 13 13 13 11 14 14 16 17 18 17 16 16 12 14 6 12 11 10 12 13 15
23 23 25 24 23 22 21 19 19 19 20 19 16 15 14 13 12 11 9 9 9 9 9 10 11 11 14 14 15 15 13 15 17 17 16 16 18 15 16 10 7 10 7 13 10 11 10
26 27 25 25 24 24 24 23 21 18 19 21 19 17 16 14 14 12 12 10 9 11 11 10 11 10 14 14 16 18 19 16 19 17 17 17 17 15 16 15 8 14 14 10 9 10 13
24 20 19 19 17 20 20 22 22 22 19 19 19 19 18 17 15 15 13 12 11 12 13 13 7 18 7 15 13 18 20 20 18 19 19 18 18 19 16 18 12 4 8 9 11 14 10
18 19 19 19 19 19 18 19 19 20 21 20 19 18 19 18 18 17 16 14 12 10 9 13 16 13 14 12 15 17 20 22 23 22 17 18 23 16 13 16 17 18 12 13 10 14 13
22 21 20 21 20 21 17 17 17 17 18 21 20 19 18 19 19 18 16 15 14 12 12 14 15 17 16 13 14 17 19 23 21 19 21 16 10 13 23 20 19 17 16 14 10 10 13
24 22 22 20 19 19 18 16 16 17 17 18 19 18 18 18 20 18 18 16 14 11 7 12 18 19 20 17 15 15 21 21 20 18 15 15 21 18 9 14 16 15 14 16 13 10 13
23 23 22 19 18 18 17 16 15 15 14 14 15 17 18 18 17 19 13 16 14 12 5 9 17 17 20 23 15 22 20 20 16 17 18 10 13 18 22 18 14 14 17 16 15 17 15
23 23 22 20 19 17 15 15 14 13 13 12 12 14 17 18 17 16 15 16 16 10 6 9 13 16 18 24 22 15 25 24 22 17 18 13 15 11 9 12 14 11 9 7 6 8 10
25 25 22 19 19 18 17 15 14 14 14 12 10 10 13 16 17 19 18 20 13 10 9 10 14 16 15 20 18 16 22 22 13 12 17 16 16 17 13 10 13 14 12 6 6 6 7
26 26 24 20 18 17 17 15 13 13 13 11 9 10 9 13 16 21 22 26 12 10 11 13 15 18 12 18 17 19 19 18 24 16 5 17 8 18 19 17 9 21 17 9 7 10 8
26 23 23 22 18 16 16 16 14 13 14 10 6 8 11 11 14 21 26 20 8 9 20 15 17 16 17 21 13 17 13 13 20 23 7 10 7 15 14 18 17 11 14 15 8 12 5
21 21 21 20 19 17 15 15 15 12 11 8 5 5 6 9 12 19 27 20 15 13 14 20 13 15 15 18 13 14 15 15 17 21 22 9 4 13 15 13 16 12 12 6 10 5 11
20 20 19 19 18 17 14 12 14 13 11 7 6 5 5 5 12 20 18 17 16 13 14 20 15 18 13 16 13 13 11 14 18 19 19 15 10 5 13 14 12 9 8 10 8 6 5
21 20 18 17 17 17 16 12 11 12 11 9 6 5 5 6 15 22 23 19 18 14 15 16 16 15 15 17 20 16 16 14 14 14 11 15 10 6 9 12 15 15 15 13 8 8 6
20 20 19 17 16 16 16 14 10 10 10 9 7 8 8 10 9 16 17 18 18 18 18 16 14 16 15 19 13 18 15 15 13 13 10 12 6 5 1 9 14 13 14 15 15 14 7
20 20 19 18 17 17 17 15 10 8 8 7 9 7 11 15 17 11 15 16 17 17 17 17 14 14 15 16 16 13 16 15 15 14 12 11 9 8 1 4 5 5 8 10 10 4 5
22 21 20 20 19 18 17 17 14 9 6 6 10 11 12 12 21 19 14 11 17 14 15 16 15 15 16 13 15 13 14 14 13 12 12 11 8 12 12 11 11 11 13 14 14 17 12
21 21 22 21 20 19 18 17 16 13 7 5 8 11 12 15 15 18 17 16 15 14 13 15 11 14 14 12 14 14 13 14 12 12 12 12 7 9 10 11 11 13 15 16 18 19 20
21 21 21 22 22 21 19 17 15 14 10 7 5 6 8 9 12 14 15 13 16 14 12 13 13 12 12 11 11 10 11 11 9 10 10 9 8 7 3 5 4 8 15 14 13 12 12
21 21 21 21 21 21 20 19 16 13 10 7 5 4 6 9 12 13 12 13 14 14 10 14 13 12 10 10 9 8 8 8 8 8 9 7 8 7 5 3 3 4 4 8 9 9 11
20 20 21 21 20 20 19 19 18 16 13 11 7 5 4 6 10 11 12 11 13 12 12 12 11 9 11 10 8 6 5 4 4 6 7 8 8 5 4 7 5 9 10 10 11 10 11
24 25 24 24 24 22 20 19 18 17 16 15 12 10 8 5 9 9 11 11 11 11 12 12 11 11 11 11 7 5 4 5 5 6 7 8 7 4 6 2 3 1 3 5 8 14 11
28 29 30 30 29 28 27 24 22 20 18 16 15 13 11 11 11 14 16 14 13 14 13 13 12 12 9 8 5 4 4 9 5 6 7 6 6 5 5 5 5 7 7 6 3 6 11
33 34 34 34 33 32 31 29 27 25 22 20 17 15 14 13 13 15 15 14 14 15 12 13 13 11 10 9 5 5 4 8 8 8 9 7 5 3 4 4 6 7 7 8 14 19 22
35 35 34 33 32 31 30 30 29 27 24 22 19 17 15 14 12 17 16 15 15 13 11 15 12 10 13 9 9 7 7 8 8 4 8 7 7 3 5 5 7 12 15 16 18 21 24
Wind_Direction
305 302 301 300 298 296 294 292 285 284 283 284 285 289 295 306 316 302 262 240 229 225 221 223 225 225 223 223 223 236 224 221 214 209 206 204 207 199 206 210 208 220 225 221 221 225 220
310 305 302 299 298 296 293 291 289 285 282 279 279 279 282 285 291 296 263 235 227 223 220 222 223 225 221 221 225 226 226 225 205 198 195 194 201 198 211 200 217 238 221 224 223 225 222
312 309 307 303 298 294 290 288 287 284 280 277 273 271 269 269 267 267 262 235 226 221 218 218 221 220 220 217 223 221 220 214 193 189 187 193 200 197 211 213 224 227 217 225 224 221 220
310 310 308 306 303 298 292 286 283 283 279 273 272 267 264 259 259 253 248 237 224 224 221 217 220 223 225 220 221 220 214 208 196 188 189 194 196 189 178 214 218 225 239 220 229 222 221
312 309 302 297 297 292 292 289 284 278 278 274 269 268 263 261 255 254 246 238 227 223 221 220 222 228 233 225 222 218 210 206 205 198 198 205 194 199 201 193 212 218 236 204 201 190 190
315 313 308 301 295 298 285 284 281 279 277 275 269 265 262 258 257 251 249 243 234 228 220 219 221 226 233 226 220 217 216 210 207 204 206 210 208 206 206 203 198 215 216 200 194 196 167
319 326 329 324 316 308 299 287 280 274 271 272 272 265 259 256 254 250 246 244 242 242 232 228 214 220 228 220 212 214 214 213 207 207 213 216 215 216 217 216 230 193 196 195 183 178 158
328 329 326 326 332 318 309 299 290 276 267 264 263 265 261 252 248 247 245 242 240 247 240 231 231 229 226 227 219 211 207 206 209 211 196 218 228 223 229 219 224 229 225 223 215 215 203
329 325 322 321 325 331 319 305 297 291 275 262 257 255 258 255 246 245 240 238 233 236 245 245 232 228 225 220 216 212 203 206 213 207 219 216 236 233 231 232 232 231 227 222 219 234 204
334 323 327 322 321 331 325 316 308 299 292 269 254 252 250 252 246 239 238 229 229 223 235 255 228 226 220 211 211 201 198 200 205 209 221 234 241 238 223 220 224 235 242 227 219 207 229
339 337 332 328 325 326 327 323 317 309 298 280 256 250 245 242 247 237 227 227 207 199 253 232 214 215 211 205 217 209 205 208 213 213 209 217 237 238 235 234 229 238 240 244 223 230 243
332 339 338 334 336 326 325 329 326 321 311 296 269 249 242 238 234 228 207 202 190 182 234 206 202 200 195 203 216 214 206 212 217 219 222 223 237 216 200 212 192 211 197 193 182 206 236
329 330 335 337 336 331 327 330 327 324 316 302 282 254 245 237 228 216 203 183 171 224 209 212 200 193 183 199 204 202 204 205 203 200 220 222 231 225 216 211 206 199 174 182 208 206 242
324 326 332 333 333 332 328 327 326 325 321 305 281 252 234 260 223 207 193 181 218 204 191 209 194 181 183 196 203 204 197 203 204 199 185 200 217 226 229 209 213 210 200 216 225 221 222
315 321 323 325 323 326 328 328 329 335 334 324 295 265 239 248 224 202 187 199 230 206 205 192 175 182 199 203 201 191 187 194 210 203 200 201 199 208 215 212 202 192 216 228 257 262 282
319 316 318 319 318 317 322 323 323 330 334 327 308 286 263 229 218 200 194 215 232 220 199 192 185 191 197 196 197 187 190 213 206 209 209 206 176 205 208 202 202 191 194 203 214 242 237
332 328 322 319 317 314 316 319 313 317 320 319 287 286 280 229 188 192 201 231 233 226 204 187 202 190 176 195 188 185 191 216 212 214 213 211 202 214 205 202 197 211 220 220 226 246 265
343 339 334 327 325 319 317 318 308 312 305 300 276 254 231 198 175 194 205 224 227 222 216 208 211 208 201 196 192 197 211 212 212 210 203 204 201 180 208 223 225 227 221 217 234 236 240
346 346 344 339 333 327 322 321 314 309 300 283 262 247 218 198 195 218 219 227 229 225 216 218 215 210 212 201 196 208 212 213 213 206 194 190 196 148 264 250 245 238 238 238 236 250 240
352 351 353 350 345 343 333 328 332 317 301 268 244 231 221 214 219 233 228 228 222 219 218 217 218 212 206 197 203 203 207 207 206 202 204 190 199 195 152 150 182 206 227 231 229 220 259
2 359 358 359 357 355 345 343 346 339 309 269 235 236 235 223 227 230 233 234 217 206 207 206 208 204 197 192 196 201 200 200 205 211 214 215 221 226 239 244 246 249 248 246 250 252 257
6 5 2 359 359 357 356 353 350 346 335 293 259 252 245 241 233 228 224 222 215 209 205 202 206 202 201 205 202 204 209 208 211 221 227 228 218 222 240 249 257 263 259 257 255 257 260
8 6 5 4 1 1 360 360 354 353 355 330 301 257 235 230 214 205 214 221 208 204 203 203 201 197 199 203 208 209 207 213 221 214 207 209 213 192 165 250 264 273 249 243 252 253 257
6 7 6 5 3 2 2 1 360 0 1 4 347 293 258 243 218 217 218 207 205 202 212 195 193 194 192 191 193 193 199 205 208 213 211 194 185 170 157 141 234 256 211 211 228 242 260
357 355 353 353 352 351 350 351 350 350 349 351 344 328 294 268 229 222 198 195 197 205 194 195 193 192 186 182 165 145 145 168 178 201 196 191 173 163 168 207 286 247 221 235 257 268 275
341 338 336 334 332 331 330 329 328 329 328 326 321 318 307 276 243 223 210 207 208 203 196 196 192 190 187 177 160 153 155 155 157 142 156 170 180 157 170 227 271 226 208 257 289 281 274
330 328 326 323 322 319 316 313 310 307 305 303 301 295 286 274 260 228 225 218 216 209 208 200 190 184 191 173 167 163 168 158 148 155 167 163 174 191 214 243 267 256 270 292 274 288 288
328 327 323 320 317 314 310 307 303 299 294 289 285 280 271 263 257 235 231 224 213 210 205 203 188 200 194 182 180 171 152 184 180 173 172 169 166 177 198 208 249 256 282 293 293 296 297
328 326 325 326 325 324 320 312 303 295 288 282 277 270 262 252 253 234 229 220 208 210 212 202 205 204 196 183 190 174 159 164 166 190 188 189 205 190 212 226 265 290 294 296 298 300 301